Welcome to the New NWS' Forecast!
Most changes are behind the scenes, but click here for differences you might notice.

Regional Weather Roundup (RWR)

Issued by National Weather Service (NWS)

                            
708 
ASUS45 KREV 201210
RWRNV 
NEVADA REGIONAL WEATHER ROUNDUP
NATIONAL WEATHER SERVICE RENO NV
500 AM PDT MON AUG 20 2018

NOTE: "FAIR" INDICATES FEW OR NO CLOUDS BELOW 12,000 FEET WITH NO
SIGNIFICANT WEATHER AND/OR OBSTRUCTIONS TO VISIBILITY.

NVZ001-003-004-201300-
WESTERN NEVADA
  
CITY           SKY/WX    TMP DP  RH WIND       PRES   REMARKS
RENO           PTCLDY    63  36  36 S3        30.06R                  
6HR MIN TEMP:  63; 6HR MAX TEMP:  79;                                

CARSON CITY    FAIR      57  36  44 CALM      30.08S                  
MINDEN         FAIR      46  34  61 MISG      30.08S                  
SLIDE MTN        N/A     52  32  46 SW15        N/A                   
FALLON         CLEAR     62  42  47 S3        30.00S                  
6HR MIN TEMP:  59; 6HR MAX TEMP:  79;                                

LOVELOCK       CLEAR     58  35  42 VRB3      29.99R                  
6HR MIN TEMP:  56; 6HR MAX TEMP:  85;                                

HAWTHORNE      CLEAR     70  36  28 CALM      30.01S                  
$$

NVZ002-CAZ072-073-201300-
NORTHERN AND CENTRAL SIERRA
  
CITY           SKY/WX    TMP DP  RH WIND       PRES   REMARKS
S. LAKE TAHOE  PTCLDY    45  35  68 CALM      30.17S                  
6HR MIN TEMP:  45; 6HR MAX TEMP:  58;                                

TRUCKEE        PTCLDY    39  30  70 CALM      30.17S                  
SQUAW VLY 8000   N/A     57  14  18 SW10        N/A                   
BLUE CANYON    CLEAR     67  19  16 E3        30.12F                  
MAMMOTH LAKES  FAIR      51  32  48 CALM      30.23F                  
6HR MIN TEMP:  47; 6HR MAX TEMP:  66;                                

BRIDGEPORT     FAIR      53  30  41 CALM      30.19S                  
$$

NVZ030-031-036-201300-
NORTHERN NEVADA
  
CITY           SKY/WX    TMP DP  RH WIND       PRES   REMARKS
ELKO           PTCLDY    54  30  40 E3        30.04R                  
6HR MIN TEMP:  51; 6HR MAX TEMP:  68;                                

WINNEMUCCA     MOCLDY    62  31  31 S3        29.99R HAZE             
6HR MIN TEMP:  60; 6HR MAX TEMP:  79;                                

WENDOVER       PTCLDY    68  33  27 W3        29.98F                  
$$

NVZ035-037-201300-
CENTRAL NEVADA
  
CITY           SKY/WX    TMP DP  RH WIND       PRES   REMARKS
ELY            PTCLDY    65  31  28 S13       30.13S                  
6HR MIN TEMP:  50; 6HR MAX TEMP:  65;                                

EUREKA           N/A     55  31  39 SW5       30.09S                  
6HR MIN TEMP:  54; 6HR MAX TEMP:  67;                                

$$

NVZ013-014-201300-
SOUTH CENTRAL NEVADA
  
CITY           SKY/WX    TMP DP  RH WIND       PRES   REMARKS
TONOPAH        CLEAR     63  35  35 N9        30.09R                  
6HR MIN TEMP:  62; 6HR MAX TEMP:  77;                                

$$

NVZ017-020-022-201300-
SOUTHERN NEVADA
  
CITY           SKY/WX    TMP DP  RH WIND       PRES   REMARKS
LAS VEGAS      PTCLDY    90  45  21 S8        29.83R                  
6HR MIN TEMP:  90; 6HR MAX TEMP: 100;                                

N. LAS VEGAS   CLEAR     89  43  20 CALM      29.83S                  
6HR MIN TEMP:  88; 6HR MAX TEMP: 100;                                

NELLIS AFB     CLEAR     86  50  28 S7        29.81S                  
6HR MIN TEMP:  86; 6HR MAX TEMP:  98;                                

HENDERSON      CLEAR     89  45  21 S10       29.89R                  
6HR MIN TEMP:  87; 6HR MAX TEMP:  94;                                

MERCURY        PTCLDY    82  38  20 E6        29.92S                  
6HR MIN TEMP:  81; 6HR MAX TEMP:  94;                                

$$